TimePDT,TemperatureF,Dew PointF,Humidity,Sea Level PressureIn,VisibilityMPH,Wind Direction,Wind SpeedMPH,Gust SpeedMPH,PrecipitationIn,Events,Conditions,WindDirDegrees,DateUTC
12:53 AM,52.0,45.0,77,29.97,10.0,WSW,8.1,-,N/A,,Clear,240,2013-05-27 07:53:00
1:53 AM,52.0,44.1,74,29.97,10.0,Calm,Calm,-,N/A,,Clear,0,2013-05-27 08:53:00
2:53 AM,50.0,44.1,80,29.96,10.0,Calm,Calm,-,N/A,,Clear,0,2013-05-27 09:53:00
3:53 AM,50.0,44.1,80,29.94,10.0,East,4.6,-,N/A,,Clear,100,2013-05-27 10:53:00
4:53 AM,50.0,45.0,83,29.93,10.0,East,3.5,-,N/A,,Clear,90,2013-05-27 11:53:00
5:53 AM,51.1,45.0,80,29.92,10.0,Calm,Calm,-,N/A,,Overcast,0,2013-05-27 12:53:00
6:53 AM,51.1,46.0,83,29.91,10.0,Calm,Calm,-,0.00,Rain,Light Rain,0,2013-05-27 13:53:00
7:53 AM,51.1,46.9,86,29.90,9.0,Calm,Calm,-,0.03,Rain,Light Rain,0,2013-05-27 14:53:00
8:53 AM,52.0,48.0,86,29.89,10.0,Calm,Calm,-,0.03,Rain,Light Rain,0,2013-05-27 15:53:00
9:53 AM,53.1,50.0,89,29.88,10.0,East,5.8,-,0.02,Rain,Light Rain,80,2013-05-27 16:53:00
10:53 AM,54.0,50.0,86,29.86,8.0,ENE,9.2,-,0.04,Rain,Light Rain,70,2013-05-27 17:53:00
11:53 AM,55.0,51.1,86,29.84,10.0,ENE,10.4,-,0.04,Rain,Light Rain,70,2013-05-27 18:53:00
12:53 PM,55.0,51.1,86,29.83,10.0,ENE,10.4,-,0.04,Rain,Light Rain,60,2013-05-27 19:53:00
1:53 PM,55.9,53.1,90,29.81,10.0,ENE,9.2,-,0.07,Rain,Light Rain,70,2013-05-27 20:53:00
2:53 PM,57.9,54.0,87,29.80,10.0,ENE,8.1,-,0.00,Rain,Light Rain,70,2013-05-27 21:53:00
3:53 PM,60.1,55.0,83,29.79,10.0,NE,9.2,-,0.01,,Overcast,50,2013-05-27 22:53:00
4:53 PM,64.0,54.0,70,29.76,10.0,ENE,13.8,-,N/A,,Partly Cloudy,70,2013-05-27 23:53:00
5:51 PM,59.0,53.6,82,29.76,1.8,North,8.1,-,0.08,Rain,Heavy Rain,360,2013-05-28 00:51:00
5:53 PM,59.0,54.0,83,29.77,1.5,North,6.9,-,0.11,Rain,Heavy Rain,350,2013-05-28 00:53:00
6:06 PM,60.8,55.4,82,29.76,3.0,NNW,4.6,-,0.04,Rain,Light Rain,340,2013-05-28 01:06:00
6:53 PM,57.9,54.0,87,29.76,7.0,NW,10.4,-,0.05,Rain,Light Rain,320,2013-05-28 01:53:00
7:53 PM,57.9,55.0,90,29.78,10.0,Calm,Calm,-,0.03,Rain,Light Rain,0,2013-05-28 02:53:00
8:53 PM,57.0,53.1,87,29.78,10.0,Calm,Calm,-,0.01,,Mostly Cloudy,0,2013-05-28 03:53:00
9:53 PM,57.0,54.0,89,29.79,10.0,Calm,Calm,-,N/A,,Mostly Cloudy,0,2013-05-28 04:53:00
10:53 PM,57.0,53.1,87,29.81,10.0,NNW,4.6,-,N/A,,Overcast,340,2013-05-28 05:53:00
11:53 PM,55.9,48.9,77,29.81,10.0,West,8.1,-,N/A,,Partly Cloudy,270,2013-05-28 06:53:00